Location: Meanaryar
(48.4161°N, 4.7315°W)
Time: 09:18:32
(UTC+00:00)

Cosmos 1092 Rocket - Pass Details

Date: 24 January 2021
Orbit: 954 x 995 km, 83.0° (Epoch: 02 March)

Event Time Altitude Azimuth Distance (km) Brightness Sun altitude
Rises 04:58:46 0° 356° (N) 3,645 7.0 -29.4°
Reaches altitude 10° 05:01:30 10° 4° (N) 2,696 6.4 -29.0°
Maximum altitude 05:07:10 37° 71° (ENE) 1,450 5.3 -28.0°
Drops below altitude 10° 05:12:49 10° 138° (SE) 2,694 6.8 -27.1°
Sets 05:15:31 0° 146° (SSE) 3,642 7.4 -26.6°
